星链-33882 (STARLINK-33882)

导读

STARLINK-33882是美国SpaceX公司“星链”卫星互联网项目的一员,于2025年5月2日发射升空。作为星链大规模组网建设阶段发射的卫星,它运行于近地轨道,属于星链星座中完成技术迭代的量产卫星。该卫星采用相控阵天线与霍尔推进技术,依托星链全球卫星网络,可提供高速低延迟宽带通信服务,助力实现全球范围互联网覆盖,服务偏远地区通信、海上及航空联网需求。

基本信息
目录编号:
63788
目录名称:
STARLINK-33882
国际标识:
2025-091P
轨道中心:
EARTH
卫星名称:
星链-33882
卫星全名:
星链-33882 (STARLINK-33882)
卫星状态:
在轨 (已飞行408 天)
发射日期:
2025-05-02 UTC
国别 :
美国 (US)
星等 :
--
轨道信息
数据来源 国际轨道数据
星历时间: 2026-06-13T19:44:14+0800
16小时前
查看轨道信息
半长轴: 6861.139km
偏心率: 0.0000355
轨道倾角: 42.999°
近地点辐角 279.336°
升交点赤经 231.485°
平近点角 80.745°
近地点: 482.758km
远地点: 483.246km
周期: 94.266分钟
每日圈数: 15.275958
详细信息
固有亮度:
5
最大亮度:
2.5
卫星平台:
Starlink V1.0
覆盖范围:
全球
运营商:
太空探索技术公司
运营商所在国:
美国
制造商(研发单位):
太空探索技术公司
制造商所在国:
美国
使用方式:
暂无
卫星简介
Starlink 计划是 SpaceX 推出的全球卫星互联网项目,通过发射低轨道卫星,为全球尤其是偏远地区提供高速、低延迟的互联网服务。自 2019 年起,Starlink 已部署数千颗卫星,旨在缩小全球数字鸿沟,推动互联网普及。该项目还为军事、航空等行业提供通信支持,带来广泛经济效益。
2D轨道图
3D轨道图
轨道高度分析图
轨道倾角分析图
轨道综合分析图
查看轨道综合分析图